Location: Cahas Mountain Overlook
(37.0833°N, 80.1000°W)
Time: 04:21:10
(UTC-04:00)

A-11 Canister half - Pass Details

Date: 25 May 2026
Orbit: 1524 x 1684 km, 47.3° (Epoch: 8 June)

Event Time Altitude Azimuth Distance (km) Brightness Sun altitude
Rises 00:41:58 0° 288° (WNW) 4,857 12.0 -31.4°
Reaches altitude 10° 00:47:09 10° 266° (W) 3,896 11.1 -31.5°
Enters shadow 00:51:09 14° 241° (WSW) 3,591 10.7 -31.6°
